TimeEDT,TemperatureF,Dew PointF,Humidity,Sea Level PressureIn,VisibilityMPH,Wind Direction,Wind SpeedMPH,Gust SpeedMPH,PrecipitationIn,Events,Conditions,WindDirDegrees,DateUTC
12:54 AM,35.1,26.1,70,30.09,10.0,NNW,3.5,-,N/A,,Overcast,340,2013-04-08 04:54:00
1:54 AM,34.0,26.1,73,30.07,10.0,Calm,Calm,-,N/A,,Overcast,0,2013-04-08 05:54:00
2:54 AM,33.1,26.1,75,30.06,10.0,Calm,Calm,-,N/A,,Overcast,0,2013-04-08 06:54:00
3:54 AM,32.0,26.1,79,30.04,10.0,ENE,3.5,-,N/A,,Overcast,70,2013-04-08 07:54:00
4:54 AM,30.0,25.0,82,30.05,10.0,Calm,Calm,-,N/A,,Overcast,0,2013-04-08 08:54:00
5:32 AM,28.4,24.8,86,30.02,10.0,Calm,Calm,-,N/A,,Scattered Clouds,0,2013-04-08 09:32:00
5:54 AM,30.0,25.0,82,30.05,10.0,South,3.5,-,N/A,,Clear,170,2013-04-08 09:54:00
6:54 AM,27.0,24.1,89,30.04,10.0,ESE,4.6,-,N/A,,Clear,120,2013-04-08 10:54:00
7:47 AM,30.2,28.4,93,30.02,10.0,ESE,4.6,-,N/A,,Scattered Clouds,110,2013-04-08 11:47:00
7:54 AM,32.0,28.9,88,30.05,10.0,SE,5.8,-,N/A,,Scattered Clouds,130,2013-04-08 11:54:00
8:03 AM,33.8,30.2,87,30.03,10.0,SE,6.9,-,N/A,,Mostly Cloudy,130,2013-04-08 12:03:00
8:33 AM,35.6,32.0,87,30.03,10.0,SE,8.1,-,N/A,,Scattered Clouds,130,2013-04-08 12:33:00
8:43 AM,35.6,33.8,93,30.02,10.0,ESE,6.9,-,N/A,,Mostly Cloudy,120,2013-04-08 12:43:00
8:54 AM,36.0,33.1,89,30.04,10.0,SE,10.4,-,N/A,,Mostly Cloudy,140,2013-04-08 12:54:00
9:02 AM,37.4,33.8,87,30.01,10.0,SE,8.1,-,N/A,,Scattered Clouds,130,2013-04-08 13:02:00
9:54 AM,37.0,32.0,82,30.02,10.0,ESE,10.4,-,N/A,,Clear,110,2013-04-08 13:54:00
10:54 AM,37.9,30.9,76,30.00,10.0,ESE,12.7,-,N/A,,Clear,120,2013-04-08 14:54:00
11:54 AM,37.9,30.9,76,29.97,10.0,ESE,12.7,19.6,N/A,,Partly Cloudy,110,2013-04-08 15:54:00
12:54 PM,37.9,30.9,76,29.95,10.0,SE,13.8,21.9,N/A,,Clear,130,2013-04-08 16:54:00
1:54 PM,37.0,30.9,79,29.94,10.0,ESE,16.1,-,N/A,,Overcast,120,2013-04-08 17:54:00
2:54 PM,37.0,33.1,86,29.92,5.0,East,9.2,18.4,0.00,Rain,Light Rain,100,2013-04-08 18:54:00
3:54 PM,37.0,33.1,86,29.85,9.0,East,10.4,19.6,0.03,Rain,Light Rain,80,2013-04-08 19:54:00
4:54 PM,37.0,33.1,86,29.84,4.0,ENE,10.4,-,0.06,Rain,Light Rain,70,2013-04-08 20:54:00
5:11 PM,35.6,33.8,93,29.83,4.0,East,10.4,-,0.02,Rain,Light Rain,80,2013-04-08 21:11:00
5:29 PM,35.6,33.8,93,29.84,2.5,East,10.4,-,0.07,Rain,Rain,80,2013-04-08 21:29:00
5:52 PM,35.6,33.8,93,29.82,3.0,ENE,12.7,-,0.13,Rain,Light Rain,60,2013-04-08 21:52:00
5:54 PM,36.0,34.0,93,29.85,3.0,ENE,11.5,-,0.13,Rain,Light Rain,60,2013-04-08 21:54:00
6:22 PM,35.6,33.8,93,29.82,4.0,ENE,9.2,-,0.03,Rain,Light Rain,60,2013-04-08 22:22:00
6:54 PM,36.0,34.0,93,29.85,4.0,NE,8.1,18.4,0.05,Rain,Light Rain,40,2013-04-08 22:54:00
7:10 PM,35.6,33.8,93,29.83,5.0,NE,9.2,-,0.01,Rain,Light Rain,50,2013-04-08 23:10:00
7:54 PM,36.0,34.0,93,29.87,5.0,NNE,11.5,-,0.05,Rain,Light Rain,30,2013-04-08 23:54:00
8:54 PM,36.0,34.0,93,29.90,7.0,North,10.4,-,0.00,Rain,Light Rain,10,2013-04-09 00:54:00
9:54 PM,35.1,33.1,92,29.94,9.0,North,9.2,-,0.01,,Overcast,360,2013-04-09 01:54:00
10:54 PM,35.1,33.1,92,29.98,10.0,NW,3.5,-,N/A,,Overcast,310,2013-04-09 02:54:00
11:54 PM,35.1,33.1,92,30.00,9.0,NW,5.8,-,N/A,,Overcast,320,2013-04-09 03:54:00